KAL9796 RJFR-RKPK

Flight info

Callsign KAL9796
Flight time 0h 35m
Altitude 18000
Route ONGHA DGC G339 BEETL Y208 INVOK PEDLO2
Aircraft B738/M-SDE2E3FGHIRWXY/LB1

Departure

Time 2026-04-26 14:38
Airport Kitakyushu Airport (RJFR)

Arrival

Time 2026-04-26 15:13
Airport Gimhae International Airport (RKPK)
Time Latitude Longitude Altitude Speed Heading
2026-04-26 14:16 33.84032 131.03251 41 ft 0 kts 261°
2026-04-26 14:27 33.84036 131.03279 41 ft 4 kts 262°
2026-04-26 14:27 33.84039 131.03311 39 ft 4 kts 265°
2026-04-26 14:27 33.84040 131.03343 41 ft 4 kts 269°
2026-04-26 14:27 33.84040 131.03376 41 ft 4 kts 278°
2026-04-26 14:28 33.84033 131.03405 37 ft 4 kts 309°
2026-04-26 14:28 33.84021 131.03415 40 ft 1 kts 350°
2026-04-26 14:28 33.84018 131.03416 38 ft 0 kts 350°
2026-04-26 14:30 33.84029 131.03413 39 ft 6 kts 350°
2026-04-26 14:30 33.84073 131.03405 41 ft 6 kts 350°
2026-04-26 14:31 33.84117 131.03396 39 ft 6 kts 350°
2026-04-26 14:31 33.84160 131.03386 40 ft 7 kts 350°
2026-04-26 14:31 33.84210 131.03376 41 ft 8 kts 350°
2026-04-26 14:31 33.84266 131.03364 41 ft 9 kts 350°
2026-04-26 14:32 33.84329 131.03351 41 ft 10 kts 350°
2026-04-26 14:32 33.84399 131.03337 41 ft 10 kts 350°
2026-04-26 14:32 33.84469 131.03322 41 ft 10 kts 350°
2026-04-26 14:32 33.84538 131.03308 40 ft 10 kts 350°
2026-04-26 14:33 33.84610 131.03292 41 ft 11 kts 350°
2026-04-26 14:33 33.84683 131.03277 41 ft 10 kts 350°
2026-04-26 14:33 33.84755 131.03264 41 ft 11 kts 351°
2026-04-26 14:33 33.84838 131.03248 41 ft 14 kts 351°
2026-04-26 14:34 33.84937 131.03229 41 ft 14 kts 351°
2026-04-26 14:34 33.85035 131.03209 41 ft 14 kts 350°
2026-04-26 14:34 33.85128 131.03190 40 ft 13 kts 350°
2026-04-26 14:34 33.85215 131.03172 41 ft 13 kts 350°
2026-04-26 14:35 33.85306 131.03153 41 ft 14 kts 350°
2026-04-26 14:35 33.85397 131.03134 41 ft 13 kts 350°
2026-04-26 14:35 33.85485 131.03115 41 ft 13 kts 350°
2026-04-26 14:35 33.85571 131.03097 40 ft 12 kts 352°
2026-04-26 14:36 33.85641 131.03139 40 ft 12 kts 62°
2026-04-26 14:36 33.85659 131.03235 39 ft 12 kts 88°
2026-04-26 14:36 33.85638 131.03283 37 ft 6 kts 149°
2026-04-26 14:36 33.85608 131.03292 39 ft 2 kts 170°
2026-04-26 14:37 33.85560 131.03302 39 ft 30 kts 171°
2026-04-26 14:37 33.85090 131.03399 40 ft 105 kts 170°
2026-04-26 14:37 33.84152 131.03583 45 ft 165 kts 172°
2026-04-26 14:37 33.82944 131.03816 565 ft 181 kts 171°
2026-04-26 14:38 33.81767 131.04378 1338 ft 190 kts 139°
2026-04-26 14:38 33.81112 131.05751 2121 ft 194 kts 98°
2026-04-26 14:38 33.81328 131.07305 2786 ft 191 kts 59°
2026-04-26 14:38 33.81943 131.08098 3118 ft 194 kts 30°
2026-04-26 14:39 33.83645 131.08358 3915 ft 195 kts 344°
2026-04-26 14:39 33.84839 131.07465 4171 ft 213 kts 312°
2026-04-26 14:39 33.85491 131.05825 4542 ft 230 kts 285°
2026-04-26 14:39 33.85765 131.03843 4834 ft 250 kts 279°
2026-04-26 14:40 33.85538 131.01705 5109 ft 272 kts 252°
2026-04-26 14:40 33.84871 130.99541 5719 ft 277 kts 252°
2026-04-26 14:40 33.84202 130.97353 6434 ft 279 kts 252°
2026-04-26 14:40 33.83545 130.95144 7123 ft 281 kts 252°
2026-04-26 14:41 33.82899 130.92919 7830 ft 283 kts 252°
2026-04-26 14:41 33.82258 130.90673 8562 ft 285 kts 252°
2026-04-26 14:41 33.81622 130.88422 9302 ft 287 kts 252°
2026-04-26 14:41 33.80978 130.86129 10032 ft 290 kts 252°
2026-04-26 14:42 33.80320 130.83774 10438 ft 306 kts 252°
2026-04-26 14:42 33.79624 130.81284 10607 ft 328 kts 252°
2026-04-26 14:42 33.78871 130.78597 10789 ft 349 kts 252°
2026-04-26 14:42 33.78078 130.75786 11214 ft 358 kts 252°
2026-04-26 14:43 33.77272 130.72941 11903 ft 360 kts 252°
2026-04-26 14:43 33.76460 130.70084 12688 ft 360 kts 252°
2026-04-26 14:43 33.75648 130.67226 13449 ft 361 kts 252°
2026-04-26 14:43 33.74833 130.64356 14147 ft 364 kts 252°
2026-04-26 14:44 33.74011 130.61466 14777 ft 367 kts 252°
2026-04-26 14:44 33.73193 130.58587 15434 ft 369 kts 252°
2026-04-26 14:44 33.72357 130.55653 16070 ft 373 kts 252°
2026-04-26 14:44 33.71511 130.52683 16693 ft 377 kts 252°
2026-04-26 14:45 33.70659 130.49696 17318 ft 380 kts 252°
2026-04-26 14:45 33.70088 130.47696 17723 ft 382 kts 253°
2026-04-26 14:45 33.69117 130.43579 17890 ft 383 kts 266°
2026-04-26 14:45 33.69281 130.40417 17912 ft 380 kts 283°
2026-04-26 14:46 33.70220 130.37497 17920 ft 380 kts 298°
2026-04-26 14:46 33.71808 130.34939 17916 ft 383 kts 315°
2026-04-26 14:46 33.73839 130.32859 17927 ft 385 kts 319°
2026-04-26 14:46 33.75948 130.30870 17917 ft 386 kts 320°
2026-04-26 14:47 33.78077 130.28902 17918 ft 386 kts 320°
2026-04-26 14:47 33.80207 130.26930 17924 ft 386 kts 320°
2026-04-26 14:47 33.82332 130.24946 17928 ft 386 kts 320°
2026-04-26 14:47 33.84424 130.22976 17929 ft 387 kts 320°
2026-04-26 14:48 33.86543 130.20969 17931 ft 387 kts 320°
2026-04-26 14:48 33.88655 130.18960 17938 ft 387 kts 320°
2026-04-26 14:48 33.90762 130.16950 17932 ft 387 kts 320°
2026-04-26 14:48 33.92866 130.14939 17935 ft 387 kts 320°
2026-04-26 14:49 33.94977 130.12920 17934 ft 387 kts 319°
2026-04-26 14:49 33.96376 130.11581 17935 ft 387 kts 319°
2026-04-26 14:49 33.98490 130.09556 17940 ft 387 kts 319°
2026-04-26 14:49 34.00596 130.07539 17941 ft 387 kts 319°
2026-04-26 14:50 34.03391 130.04859 17938 ft 387 kts 319°
2026-04-26 14:50 34.05497 130.02838 17938 ft 387 kts 319°
2026-04-26 14:50 34.07604 130.00815 17945 ft 387 kts 319°
2026-04-26 14:50 34.09000 129.99474 17943 ft 387 kts 319°
2026-04-26 14:51 34.11110 129.97446 17944 ft 387 kts 319°
2026-04-26 14:51 34.13218 129.95419 17944 ft 387 kts 319°
2026-04-26 14:51 34.16013 129.92728 17823 ft 384 kts 319°
2026-04-26 14:51 34.17416 129.91378 17622 ft 378 kts 319°
2026-04-26 14:52 34.19448 129.89421 17357 ft 368 kts 319°
2026-04-26 14:52 34.21393 129.87546 17100 ft 359 kts 319°
2026-04-26 14:52 34.23323 129.85684 16834 ft 350 kts 319°
2026-04-26 14:52 34.25215 129.83857 16573 ft 345 kts 319°
2026-04-26 14:53 34.27082 129.82057 16322 ft 341 kts 319°
2026-04-26 14:53 34.28940 129.80283 16072 ft 339 kts 319°
2026-04-26 14:53 34.30798 129.78514 15828 ft 341 kts 320°
2026-04-26 14:53 34.32675 129.76726 15593 ft 344 kts 320°
2026-04-26 14:54 34.34529 129.74960 15350 ft 342 kts 320°
2026-04-26 14:54 34.36414 129.73162 15103 ft 339 kts 320°
2026-04-26 14:54 34.38261 129.71398 14862 ft 338 kts 320°
2026-04-26 14:54 34.40078 129.69662 14627 ft 336 kts 320°
2026-04-26 14:55 34.41906 129.67913 14389 ft 335 kts 320°
2026-04-26 14:55 34.43730 129.66168 14155 ft 333 kts 320°
2026-04-26 14:55 34.45554 129.64421 13923 ft 332 kts 320°
2026-04-26 14:55 34.47370 129.62681 13684 ft 331 kts 320°
2026-04-26 14:56 34.49181 129.60944 13417 ft 331 kts 320°
2026-04-26 14:56 34.50982 129.59215 13155 ft 330 kts 320°
2026-04-26 14:56 34.52782 129.57487 12893 ft 330 kts 320°
2026-04-26 14:56 34.54581 129.55760 12634 ft 329 kts 320°
2026-04-26 14:57 34.56350 129.54059 12381 ft 329 kts 320°
2026-04-26 14:57 34.58146 129.52332 12141 ft 328 kts 320°
2026-04-26 14:57 34.59929 129.50616 11876 ft 326 kts 320°
2026-04-26 14:57 34.61704 129.48908 11623 ft 324 kts 321°
2026-04-26 14:58 34.63474 129.47203 11380 ft 325 kts 321°
2026-04-26 14:58 34.65242 129.45498 11132 ft 325 kts 321°
2026-04-26 14:58 34.67010 129.43792 10891 ft 324 kts 321°
2026-04-26 14:58 34.68779 129.42089 10644 ft 324 kts 321°
2026-04-26 14:59 34.70520 129.40408 10403 ft 323 kts 321°
2026-04-26 14:59 34.72282 129.38705 10170 ft 322 kts 321°
2026-04-26 14:59 34.74043 129.37002 9928 ft 322 kts 321°
2026-04-26 14:59 34.75199 129.35884 9771 ft 319 kts 321°
2026-04-26 15:00 34.77435 129.33721 9395 ft 300 kts 321°
2026-04-26 15:00 34.78892 129.31966 9108 ft 293 kts 306°
2026-04-26 15:00 34.79908 129.29812 8860 ft 294 kts 296°
2026-04-26 15:00 34.80759 129.27563 8606 ft 290 kts 294°
2026-04-26 15:01 34.81568 129.25328 8343 ft 285 kts 294°
2026-04-26 15:01 34.82349 129.23159 8071 ft 274 kts 295°
2026-04-26 15:01 34.83098 129.21091 7813 ft 265 kts 295°
2026-04-26 15:01 34.83841 129.19057 7559 ft 262 kts 296°
2026-04-26 15:02 34.84589 129.17017 7327 ft 265 kts 296°
2026-04-26 15:02 34.85349 129.14951 7095 ft 269 kts 296°
2026-04-26 15:02 34.86115 129.12869 6850 ft 268 kts 296°
2026-04-26 15:02 34.86877 129.10803 6607 ft 267 kts 296°
2026-04-26 15:03 34.87628 129.08764 6372 ft 266 kts 296°
2026-04-26 15:03 34.88385 129.06712 6117 ft 265 kts 296°
2026-04-26 15:03 34.89142 129.04659 5871 ft 265 kts 296°
2026-04-26 15:03 34.89897 129.02610 5618 ft 264 kts 296°
2026-04-26 15:04 34.90646 129.00577 5368 ft 263 kts 296°
2026-04-26 15:04 34.91393 128.98548 5124 ft 262 kts 296°
2026-04-26 15:04 34.92127 128.96554 4885 ft 260 kts 295°
2026-04-26 15:04 34.92867 128.94541 4618 ft 259 kts 296°
2026-04-26 15:05 34.93602 128.92540 4359 ft 257 kts 295°
2026-04-26 15:05 34.94086 128.91223 4206 ft 256 kts 295°
2026-04-26 15:05 34.95046 128.88608 4030 ft 253 kts 295°
2026-04-26 15:05 34.95764 128.86651 3993 ft 251 kts 295°
2026-04-26 15:06 34.96472 128.84719 3995 ft 249 kts 295°
2026-04-26 15:06 34.97182 128.82782 3996 ft 250 kts 295°
2026-04-26 15:06 34.97898 128.80828 4000 ft 253 kts 295°
2026-04-26 15:06 34.98636 128.78889 3985 ft 250 kts 302°
2026-04-26 15:07 35.01398 128.77095 3878 ft 231 kts
2026-04-26 15:07 35.02901 128.77712 3724 ft 228 kts 29°
2026-04-26 15:07 35.04177 128.78793 3559 ft 219 kts 35°
2026-04-26 15:08 35.05366 128.79901 3372 ft 210 kts 35°
2026-04-26 15:08 35.06520 128.80975 3215 ft 209 kts 33°
2026-04-26 15:08 35.07678 128.82038 2966 ft 204 kts 34°
2026-04-26 15:08 35.08795 128.83062 2860 ft 199 kts 34°
2026-04-26 15:09 35.09903 128.84071 2694 ft 197 kts 33°
2026-04-26 15:09 35.11000 128.85079 2426 ft 198 kts 34°
2026-04-26 15:09 35.12092 128.86112 2085 ft 195 kts 35°
2026-04-26 15:09 35.13121 128.87094 1769 ft 185 kts 36°
2026-04-26 15:10 35.14102 128.88032 1735 ft 173 kts 34°
2026-04-26 15:10 35.14793 128.88462 1691 ft 161 kts
2026-04-26 15:10 35.16219 128.88390 1700 ft 155 kts 353°
2026-04-26 15:10 35.17323 128.88285 1479 ft 162 kts 355°
2026-04-26 15:11 35.18436 128.88273 1328 ft 156 kts
2026-04-26 15:11 35.19507 128.88432 1073 ft 158 kts 12°
2026-04-26 15:11 35.20537 128.88853 966 ft 154 kts 26°
2026-04-26 15:11 35.21420 128.89581 858 ft 156 kts 44°
2026-04-26 15:12 35.21974 128.90732 779 ft 158 kts 79°
2026-04-26 15:12 35.21871 128.92055 682 ft 158 kts 115°
2026-04-26 15:12 35.21149 128.93038 518 ft 158 kts 148°
2026-04-26 15:12 35.20119 128.93431 255 ft 159 kts 175°
2026-04-26 15:13 35.19033 128.93557 90 ft 154 kts 174°
2026-04-26 15:13 35.18016 128.93687 22 ft 130 kts 173°
2026-04-26 15:13 35.17327 128.93774 26 ft 69 kts 175°
2026-04-26 15:13 35.17040 128.93811 22 ft 26 kts 174°
2026-04-26 15:14 35.16952 128.93940 21 ft 20 kts 85°
2026-04-26 15:14 35.16966 128.94104 22 ft 17 kts 84°
2026-04-26 15:14 35.16978 128.94239 22 ft 14 kts 84°
2026-04-26 15:14 35.16988 128.94357 22 ft 14 kts 84°
2026-04-26 15:15 35.16999 128.94467 23 ft 12 kts 71°
2026-04-26 15:15 35.17056 128.94497 22 ft 9 kts 356°
2026-04-26 15:15 35.17114 128.94496 25 ft 7 kts 24°
2026-04-26 15:15 35.17132 128.94550 22 ft 7 kts 85°
2026-04-26 15:16 35.17134 128.94583 22 ft 0 kts 85°